DW1818 Weather Reports


time (UTC)temp
C
wind
direction
speed
KPH
gust
KPH
rain 1hr
cm
rain 24hr
cm
rain mn
cm
humidity
%
barometer
mb
20260505153035 24 232 32.2 0.0 0.00 0.00 0.00 100 1007.6
20260505151533 23 218 33.8 0.0 0.00 0.00 0.00 100 1007.7
20260505124547 18 94 1.6 0.0 0.00 0.00 0.00 100 1008.7
20260505123047 17 24 3.2 0.0 0.00 0.00 0.00 100 1008.8
20260505121538 16 66 4.8 0.0 0.00 0.00 0.00 100 1008.9
20260505120036 15 76 3.2 0.0 0.00 0.00 0.00 100 1008.8
20260505114530 13 34 3.2 0.0 0.00 0.00 0.00 100 1008.9
20260505113025 12 360 3.2 0.0 0.00 0.00 0.00 100 1008.9
20260505111521 12 10 3.2 0.0 0.00 0.00 0.00 100 1008.6
20260505101505 11 94 4.8 0.0 0.00 0.00 0.00 100 1008.2
20260505100059 11 277 4.8 0.0 0.00 0.00 0.00 100 1008.4
20260505094555 11 138 4.8 0.0 0.00 0.00 0.00 100 1008.3
20260505093050 10 346 1.6 0.0 0.00 0.00 0.00 100 1008.2
20260505091605 10 164 3.2 0.0 0.00 0.00 0.00 100 1008.0
20260505090045 11 41 6.4 0.0 0.00 0.00 0.00 100 1007.9
20260505084538 11 91 6.4 0.0 0.00 0.00 0.00 100 1007.8
20260505083035 11 46 8.0 0.0 0.00 0.00 0.00 100 1007.9
20260505081530 11 32 6.4 0.0 0.00 0.00 0.00 100 1007.9
20260505080025 11 42 6.4 0.0 0.00 0.00 0.00 100 1007.9
20260505074520 11 47 6.4 0.0 0.00 0.00 0.00 100 1007.6
20260505073016 12 31 6.4 0.0 0.00 0.00 0.00 100 1007.5
20260505071511 12 44 6.4 0.0 0.00 0.00 0.00 100 1007.4
20260505070007 12 52 6.4 0.0 0.00 0.00 0.00 100 1007.3
20260505064503 12 87 1.6 0.0 0.00 0.00 0.00 100 1007.3
20260505063138 12 351 9.7 0.0 0.00 0.00 0.00 100 1007.5
20260505061627 12 116 8.0 0.0 0.00 0.00 0.00 100 1007.5
20260505060059 12 28 4.8 0.0 0.00 0.00 0.00 100 1007.8
20260505054546 12 94 3.2 0.0 0.00 0.00 0.00 100 1007.7
20260505053044 12 27 4.8 0.0 0.00 0.00 0.00 100 1007.8
20260505051556 12 32 4.8 0.0 0.00 0.00 0.00 100 1007.9
20260505041519 13 325 3.2 0.0 0.00 0.00 0.00 100 1007.7
20260505040015 13 325 3.2 0.0 0.00 0.00 0.00 100 1007.6
20260505034514 14 257 0.0 0.0 0.00 0.00 0.00 100 1007.4
20260505033006 13 304 1.6 0.0 0.00 0.00 0.00 100 1007.5
20260505031503 15 257 1.6 0.0 0.00 0.00 0.00 100 1007.5
20260505030100 14 256 1.6 0.0 0.00 0.00 0.00 100 1007.6
20260505024555 15 26 4.8 0.0 0.00 0.00 0.00 100 1007.2
20260505023048 16 26 1.6 0.0 0.00 0.00 0.00 100 1007.6
20260505021549 16 328 3.2 0.0 0.00 0.00 0.00 100 1007.4
20260505020040 17 97 3.2 0.0 0.00 0.00 0.00 100 1007.3
20260505014535 18 321 3.2 0.0 0.00 0.00 0.00 100 1007.2
20260505013031 20 198 3.2 0.0 0.00 0.00 0.00 100 1007.1
20260505011526 20 213 3.2 0.0 0.00 0.00 0.00 100 1007.1
20260505010023 21 194 11.3 0.0 0.00 0.00 0.00 100 1006.8
20260505004520 21 180 4.8 0.0 0.00 0.00 0.00 100 1006.9
20260505003020 21 151 6.4 0.0 0.00 0.00 0.00 100 1006.8
20260505001510 21 175 8.0 0.0 0.00 0.00 0.00 100 1006.6
20260505000006 21 194 8.0 0.0 0.00 0.00 0.00 100 1006.5
20260504234503 22 220 11.3 0.0 0.00 0.00 0.00 100 1006.5
20260504233108 22 166 9.7 0.0 0.00 0.00 0.00 100 1006.2
20260504231552 22 172 11.3 0.0 0.00 0.00 0.00 100 1006.4
20260504230055 22 192 14.5 0.0 0.00 0.00 0.00 100 1006.2
20260504224543 23 165 16.1 0.0 0.00 0.00 0.00 100 1006.2
20260504223039 23 144 17.7 0.0 0.00 0.00 0.00 100 1006.1
20260504221534 23 203 24.1 0.0 0.00 0.00 0.00 100 1006.1
20260504220030 23 169 19.3 0.0 0.00 0.00 0.00 100 1005.9
20260504214526 24 198 16.1 0.0 0.00 0.00 0.00 100 1005.9
20260504213021 23 158 19.3 0.0 0.00 0.00 0.00 100 1005.8
20260504211517 23 193 20.9 0.0 0.00 0.00 0.00 100 1006.0
20260504210013 24 209 19.3 0.0 0.00 0.00 0.00 100 1006.1
20260504204508 24 234 24.1 0.0 0.00 0.00 0.00 100 1006.1
20260504203004 23 211 25.7 0.0 0.00 0.00 0.00 100 1006.2
20260504201600 24 268 20.9 0.0 0.00 0.00 0.00 100 1006.3
20260504200055 23 209 20.9 0.0 0.00 0.00 0.00 100 1006.7
20260504194600 23 205 14.5 0.0 0.00 0.00 0.00 100 1006.9
20260504193049 23 190 20.9 0.0 0.00 0.00 0.00 100 1007.3
20260504191543 22 216 20.9 0.0 0.00 0.00 0.00 100 1007.5
20260504190059 23 257 19.3 0.0 0.00 0.00 0.00 100 1007.5
20260504184535 22 192 19.3 0.0 0.00 0.00 0.00 100 1007.8
20260504183033 22 162 17.7 0.0 0.00 0.00 0.00 100 1008.0
20260504181524 22 234 19.3 0.0 0.00 0.00 0.00 100 1008.2
20260504180020 22 224 27.4 0.0 0.00 0.00 0.00 100 1008.5
20260504174516 22 217 20.9 0.0 0.00 0.00 0.00 100 1008.8
20260504173012 21 196 16.1 0.0 0.00 0.00 0.00 100 1009.2
20260504171507 21 200 12.9 0.0 0.00 0.00 0.00 100 1009.3